Content
SEND FEEDBACK

Daily
Averages
Monthly
Summary
United Kingdom

LONDON, ENGLAND


Home > Europe > United Kingdom > England
Elevation: 203 feet     Latitude: 51 09N     Longitude: 000 11W

WEATHER
 
SELECT A DAY
Number of Records: 298,576;   Date Range: 7/1/96 - 11/21/14
 
SHARE

PRINT THIS DATA

[ ← Previous Day ]
WEATHER ALMANAC - AUGUST 28, 2013
[ Next Day → ]
[ °C ]   °F
Weather ElementAverageHighLow
Temperature61.7 °F73.4 °F (2:20 pm)48.2 °F (4:20 am)
Dewpoint50.6 °F55.4 °F (10:20 am)46.4 °F (3:20 am)
Humidity70.2 %94 % (6:20 am)41 % (2:20 pm)
Barometer30.18 in30.21 in (7:50 am)30.12 in (12:50 am)
Wind Speed3.9 mph6.9 mph (7:50 am)
Weather ElementAverage
Visibility4.2 mi
Wind DirectionESE (103.9 °)

Weather ElementTotal
Precipitation---
Heating Degree Days4.2 (Base 65)
Growing Degree Days10.8 (Base 50)
Averaged from 46 records on August 28, 2013
WEATHER CONDITIONS BREAKOUT
WIND DIRECTION BREAKOUT
WEATHER BY HOUR - AUGUST 28, 2013
[ °C ]   °F
Local TimeTemperatureDewpointHumidityBarometerVisibilityWind DirectionWind SpeedGust SpeedPrecipitationEventsConditions
12:50 AM53.6 °F48.2 °F82 %30.12 inCalmClear
1:20 AM53.6 °F48.2 °F82 %30.12 inCalmClear
1:50 AM51.8 °F48.2 °F88 %30.12 inCalmClear
2:20 AM51.8 °F48.2 °F88 %30.12 inSSW (200°)2.3 mphClear
3:20 AM51.8 °F46.4 °F82 %30.15 inCalmClear
3:50 AM50.0 °F46.4 °F87 %30.15 inSouth (170°)2.3 mphClear
4:20 AM48.2 °F46.4 °F93 %30.15 inVariable2.3 mphClear
4:50 AM50.0 °F46.4 °F87 %30.15 inVariable3.5 mphClear
5:20 AM48.2 °F46.4 °F93 %30.15 in6.2 miCalmPartly Cloudy
5:50 AM51.8 °F48.2 °F88 %30.18 in6.2 miVariable2.3 mphScattered Clouds
6:20 AM53.6 °F51.8 °F94 %30.18 in5.6 miVariable4.6 mphMostly Cloudy
6:50 AM53.6 °F51.8 °F94 %30.18 in3.7 miVariable3.5 mphFogFog
7:20 AM55.4 °F53.6 °F94 %30.18 in2.2 miVariable4.6 mphHaze
7:50 AM55.4 °F53.6 °F94 %30.21 in0.9 miNorth (360°)6.9 mphMostly Cloudy
8:20 AM55.4 °F53.6 °F94 %30.21 in0.7 miNNE (20°)6.9 mphMostly Cloudy
8:50 AM55.4 °F53.6 °F94 %30.21 in1.2 miNorth (10°)6.9 mphMostly Cloudy
9:20 AM55.4 °F53.6 °F94 %30.21 inNorth (10°)5.8 mphHaze
9:50 AM57.2 °F53.6 °F88 %30.21 in3.7 miNNE (30°)4.6 mphMostly Cloudy
10:20 AM60.8 °F55.4 °F82 %30.21 in5.0 miENE (70°)4.6 mphScattered Clouds
10:50 AM62.6 °F55.4 °F77 %30.21 in6.2 miVariable5.8 mphPartly Cloudy
11:20 AM64.4 °F55.4 °F73 %30.21 inVariable3.5 mphClear
11:50 AM66.2 °F53.6 °F64 %30.21 inVariable4.6 mphClear
12:20 PM68.0 °F53.6 °F60 %30.21 inVariable3.5 mphClear
12:50 PM69.8 °F51.8 °F53 %30.21 in6.2 miVariable3.5 mphPartly Cloudy
1:20 PM71.6 °F50.0 °F46 %30.21 in6.2 miVariable4.6 mphPartly Cloudy
1:50 PM71.6 °F48.2 °F43 %30.21 inVariable2.3 mphClear
2:20 PM73.4 °F48.2 °F41 %30.21 inNW (320°)5.8 mphClear
2:50 PM73.4 °F48.2 °F41 %30.18 inWNW (290°)6.9 mphClear
3:20 PM73.4 °F48.2 °F41 %30.18 inVariable3.5 mphClear
3:50 PM73.4 °F48.2 °F41 %30.18 inVariable2.3 mphClear
4:20 PM73.4 °F50.0 °F44 %30.18 inNW (320°)4.6 mphClear
4:50 PM73.4 °F48.2 °F41 %30.18 inWNW (300°)5.8 mphClear
5:20 PM73.4 °F50.0 °F44 %30.18 inNW (310°)5.8 mphClear
5:50 PM73.4 °F50.0 °F44 %30.18 inWNW (300°)5.8 mphClear
6:20 PM71.6 °F50.0 °F46 %30.18 inWNW (290°)5.8 mphClear
6:50 PM71.6 °F50.0 °F46 %30.18 inWNW (290°)5.8 mphClear
7:20 PM68.0 °F50.0 °F52 %30.18 inSSW (210°)5.8 mphClear
7:50 PM66.2 °F50.0 °F56 %30.18 inSSW (200°)5.8 mphClear
8:20 PM64.4 °F51.8 °F64 %30.18 inSSW (210°)3.5 mphClear
8:50 PM62.6 °F51.8 °F68 %30.18 inSouth (180°)4.6 mphClear
9:20 PM62.6 °F51.8 °F68 %30.21 inSouth (170°)4.6 mphClear
9:50 PM60.8 °F51.8 °F72 %30.21 inSouth (180°)4.6 mphClear
10:20 PM59.0 °F51.8 °F77 %30.21 inSouth (170°)3.5 mphClear
10:50 PM59.0 °F51.8 °F77 %30.21 inSouth (170°)3.5 mphClear
11:20 PM59.0 °F51.8 °F77 %30.21 inCalmClear
11:50 PM59.0 °F51.8 °F77 %30.21 inVariable2.3 mphClear
Hourly data recorded from EGKK, located miles away from London, England







STORIES FROM OUR PARTNERS